Location: Unspecified
(40.9833°N, 0.0000°E)
Time: 17:05:50
(UTC+00:00)

RS-15 - Visible Passes

Search period start: 19 July 2019 00:00
Search period end: 29 July 2019 00:00
Orbit: 1899 x 2145 km, 64.8° (Epoch: 18 July)

Date Brightness Start Highest point End Pass type
(mag) Time Alt. Az. Time Alt. Az. Time Alt. Az.
19 Jul 9.2 20:26:08 10° NW 20:35:25 34° WSW 20:44:54 10° SSW visible
20 Jul 8.9 19:49:40 10° NW 19:59:45 45° WSW 20:10:03 10° S visible
22 Jul 9.9 20:52:43 10° WNW 20:58:29 16° W 21:04:20 10° SW visible
23 Jul 9.8 20:15:11 10° NW 20:23:01 23° WSW 20:31:02 10° SSW visible
24 Jul 9.5 19:38:20 10° NW 19:47:28 32° WSW 19:56:48 10° SSW visible
27 Jul 10.1 20:05:09 10° WNW 20:10:30 15° W 20:15:55 10° SW visible
